Time,TemperatureF,DewpointF,PressureIn,WindDirection,WindDirectionDegrees,WindSpeedMPH,WindSpeedGustMPH,Humidity,HourlyPrecipIn,Conditions,Clouds,dailyrainin,SoftwareType,DateUTC
2013-02-08 00:04:00,48.0,43.7,29.76,WSW,248,0.0,2.6,85,0.08,,,0.00,WUHU216HW,2013-02-08 05:04:00,
2013-02-08 00:09:00,48.0,43.7,29.76,West,270,0.0,2.6,85,0.08,,,0.00,WUHU216HW,2013-02-08 05:09:00,
2013-02-08 00:14:00,48.0,44.0,29.76,WSW,248,0.0,3.5,86,0.06,,,0.00,WUHU216HW,2013-02-08 05:14:00,
2013-02-08 00:19:00,48.0,44.0,29.76,WNW,293,5.3,6.7,86,0.06,,,0.00,WUHU216HW,2013-02-08 05:19:00,
2013-02-08 00:24:00,47.8,43.8,29.77,NNW,338,0.0,7.3,86,0.04,,,0.00,WUHU216HW,2013-02-08 05:24:00,
2013-02-08 00:29:00,47.6,43.6,29.76,WNW,293,5.8,7.3,86,0.02,,,0.00,WUHU216HW,2013-02-08 05:29:00,
2013-02-08 00:34:00,47.4,43.5,29.77,WNW,293,6.7,7.3,86,0.02,,,0.00,WUHU216HW,2013-02-08 05:34:00,
2013-02-08 00:39:00,47.4,43.5,29.77,WNW,293,10.0,10.0,86,0.04,,,0.03,WUHU216HW,2013-02-08 05:39:00,
2013-02-08 00:44:00,47.1,43.1,29.77,West,270,5.3,10.0,86,0.02,,,0.03,WUHU216HW,2013-02-08 05:44:00,
2013-02-08 00:49:00,46.5,42.6,29.78,WSW,248,4.0,6.0,86,0.02,,,0.03,WUHU216HW,2013-02-08 05:49:00,
2013-02-08 00:54:00,46.2,42.2,29.78,WSW,248,2.2,5.5,86,0.02,,,0.03,WUHU216HW,2013-02-08 05:54:00,
2013-02-08 00:59:00,45.6,41.7,29.78,NW,315,1.7,5.8,86,0.02,,,0.03,WUHU216HW,2013-02-08 05:59:00,
2013-02-08 01:04:00,45.3,41.3,29.78,NW,315,1.1,7.6,86,0.02,,,0.03,WUHU216HW,2013-02-08 06:04:00,
2013-02-08 01:09:00,45.1,41.2,29.79,SSW,203,6.7,7.6,86,0.02,,,0.03,WUHU216HW,2013-02-08 06:09:00,
2013-02-08 01:14:00,44.4,40.4,29.79,WNW,293,3.3,6.7,86,0.02,,,0.03,WUHU216HW,2013-02-08 06:14:00,
2013-02-08 01:19:00,44.0,40.1,29.79,West,270,4.0,4.0,86,0.02,,,0.03,WUHU216HW,2013-02-08 06:19:00,
2013-02-08 01:24:00,43.8,39.9,29.79,West,270,3.3,6.2,86,0.02,,,0.03,WUHU216HW,2013-02-08 06:24:00,
2013-02-08 01:29:00,43.5,39.5,29.80,West,270,5.8,6.2,86,0.02,,,0.03,WUHU216HW,2013-02-08 06:29:00,
2013-02-08 01:34:00,43.3,39.4,29.80,WNW,293,10.2,10.2,86,0.02,,,0.03,WUHU216HW,2013-02-08 06:34:00,
2013-02-08 01:39:00,42.9,39.0,29.80,West,270,0.0,10.2,86,0.00,,,0.03,WUHU216HW,2013-02-08 06:39:00,
2013-02-08 01:44:00,42.9,39.0,29.80,West,270,6.0,10.2,86,0.00,,,0.03,WUHU216HW,2013-02-08 06:44:00,
2013-02-08 01:49:00,42.6,38.6,29.80,West,270,3.8,8.2,86,0.00,,,0.03,WUHU216HW,2013-02-08 06:49:00,
2013-02-08 01:54:00,42.6,38.6,29.81,WNW,293,0.0,6.0,86,0.00,,,0.03,WUHU216HW,2013-02-08 06:54:00,
2013-02-08 01:59:00,42.2,38.3,29.81,West,270,0.0,6.0,86,0.00,,,0.03,WUHU216HW,2013-02-08 06:59:00,
2013-02-08 02:04:00,42.0,38.1,29.81,West,270,3.1,3.5,86,0.00,,,0.03,WUHU216HW,2013-02-08 07:04:00,
2013-02-08 02:09:00,41.9,37.9,29.81,WNW,293,0.0,3.1,86,0.00,,,0.03,WUHU216HW,2013-02-08 07:09:00,
2013-02-08 02:14:00,41.5,37.6,29.81,NW,315,4.0,5.8,86,0.00,,,0.03,WUHU216HW,2013-02-08 07:14:00,
2013-02-08 02:19:00,41.5,37.6,29.81,WNW,293,0.0,5.8,86,0.00,,,0.03,WUHU216HW,2013-02-08 07:19:00,
2013-02-08 02:24:00,41.1,37.2,29.82,North,0,5.5,5.5,86,0.00,,,0.03,WUHU216HW,2013-02-08 07:24:00,
2013-02-08 02:29:00,41.0,37.0,29.82,NNW,338,4.9,5.5,86,0.00,,,0.03,WUHU216HW,2013-02-08 07:29:00,
2013-02-08 02:34:00,40.8,36.8,29.83,West,270,0.0,4.9,86,0.00,,,0.03,WUHU216HW,2013-02-08 07:34:00,
2013-02-08 02:39:00,40.4,36.5,29.83,NW,315,8.2,8.2,86,0.00,,,0.03,WUHU216HW,2013-02-08 07:39:00,
2013-02-08 02:44:00,40.2,36.0,29.83,West,270,0.0,8.2,85,0.00,,,0.03,WUHU216HW,2013-02-08 07:44:00,
2013-02-08 02:49:00,40.1,35.9,29.84,NNW,338,11.1,11.1,85,0.00,,,0.03,WUHU216HW,2013-02-08 07:49:00,
2013-02-08 02:54:00,39.7,35.7,29.83,WNW,293,0.0,11.1,85,0.00,,,0.03,WUHU216HW,2013-02-08 07:54:00,
2013-02-08 02:59:00,39.5,35.4,29.84,NNW,338,1.7,7.6,85,0.00,,,0.03,WUHU216HW,2013-02-08 07:59:00,
2013-02-08 03:04:00,39.3,35.2,29.84,NW,315,12.0,12.0,85,0.00,,,0.03,WUHU216HW,2013-02-08 08:04:00,
2013-02-08 03:09:00,39.3,34.8,29.84,NW,315,8.0,12.0,85,0.00,,,0.03,WUHU216HW,2013-02-08 08:09:00,
2013-02-08 03:14:00,38.8,34.7,29.85,West,270,4.9,8.0,85,0.00,,,0.03,WUHU216HW,2013-02-08 08:14:00,
2013-02-08 03:19:00,38.8,34.7,29.85,WNW,293,4.6,8.0,85,0.00,,,0.03,WUHU216HW,2013-02-08 08:19:00,
2013-02-08 03:24:00,38.4,34.3,29.85,West,270,0.0,22.5,85,0.00,,,0.03,WUHU216HW,2013-02-08 08:24:00,
2013-02-08 03:29:00,38.1,33.9,29.85,WSW,248,1.7,22.5,85,0.00,,,0.03,WUHU216HW,2013-02-08 08:29:00,
2013-02-08 03:34:00,37.9,33.8,29.85,NE,45,1.7,12.0,85,0.00,,,0.03,WUHU216HW,2013-02-08 08:34:00,
2013-02-08 03:39:00,37.9,33.8,29.86,NW,315,5.8,8.0,85,0.00,,,0.03,WUHU216HW,2013-02-08 08:39:00,
2013-02-08 03:44:00,37.7,33.6,29.86,NW,315,0.0,7.6,85,0.00,,,0.03,WUHU216HW,2013-02-08 08:44:00,
2013-02-08 03:49:00,37.7,33.6,29.86,West,270,0.8,7.6,85,0.00,,,0.03,WUHU216HW,2013-02-08 08:49:00,
2013-02-08 03:54:00,37.5,33.4,29.86,WSW,248,0.0,7.3,85,0.00,,,0.03,WUHU216HW,2013-02-08 08:54:00,
2013-02-08 03:59:00,37.4,33.2,29.86,WNW,293,6.0,7.3,85,0.00,,,0.03,WUHU216HW,2013-02-08 08:59:00,
2013-02-08 04:04:00,37.2,33.0,29.86,West,270,6.2,6.2,85,0.00,,,0.03,WUHU216HW,2013-02-08 09:04:00,
2013-02-08 04:09:00,37.2,33.0,29.86,NW,315,6.7,6.7,85,0.00,,,0.03,WUHU216HW,2013-02-08 09:09:00,
2013-02-08 04:14:00,37.2,33.0,29.86,SE,135,0.0,6.7,85,0.00,,,0.03,WUHU216HW,2013-02-08 09:14:00,
2013-02-08 04:19:00,37.2,33.0,29.86,NW,315,3.1,11.4,85,0.00,,,0.03,WUHU216HW,2013-02-08 09:19:00,
2013-02-08 04:24:00,37.0,32.9,29.87,West,270,2.9,11.4,85,0.00,,,0.03,WUHU216HW,2013-02-08 09:24:00,
2013-02-08 04:29:00,37.0,32.9,29.87,WNW,293,0.0,5.3,85,0.00,,,0.03,WUHU216HW,2013-02-08 09:29:00,
2013-02-08 04:34:00,36.8,32.7,29.87,NNW,338,0.0,5.1,85,0.00,,,0.03,WUHU216HW,2013-02-08 09:34:00,
2013-02-08 04:39:00,36.8,32.7,29.87,West,270,4.4,4.4,85,0.00,,,0.03,WUHU216HW,2013-02-08 09:39:00,
2013-02-08 04:44:00,36.6,32.5,29.88,WNW,293,0.0,4.4,85,0.00,,,0.03,WUHU216HW,2013-02-08 09:44:00,
2013-02-08 04:49:00,36.6,32.5,29.88,NW,315,8.7,8.7,85,0.00,,,0.03,WUHU216HW,2013-02-08 09:49:00,
2013-02-08 04:54:00,36.6,32.5,29.88,West,270,7.6,12.3,85,0.00,,,0.03,WUHU216HW,2013-02-08 09:54:00,
2013-02-08 04:59:00,36.5,32.3,29.88,West,270,6.7,12.3,85,0.00,,,0.03,WUHU216HW,2013-02-08 09:59:00,
2013-02-08 05:04:00,36.3,32.1,29.89,WNW,293,3.5,6.7,85,0.00,,,0.03,WUHU216HW,2013-02-08 10:04:00,
2013-02-08 05:09:00,36.3,32.1,29.89,WNW,293,0.6,6.7,85,0.00,,,0.03,WUHU216HW,2013-02-08 10:09:00,
2013-02-08 05:14:00,36.1,32.0,29.90,West,270,6.0,6.2,85,0.00,,,0.03,WUHU216HW,2013-02-08 10:14:00,
2013-02-08 05:19:00,36.1,32.0,29.90,WSW,248,5.5,6.2,85,0.00,,,0.03,WUHU216HW,2013-02-08 10:19:00,
2013-02-08 05:24:00,35.9,31.8,29.90,WNW,293,0.0,6.0,85,0.00,,,0.03,WUHU216HW,2013-02-08 10:24:00,
2013-02-08 05:29:00,35.9,31.8,29.90,WNW,293,4.6,5.5,85,0.00,,,0.03,WUHU216HW,2013-02-08 10:29:00,
2013-02-08 05:34:00,35.7,31.6,29.90,NW,315,0.0,4.6,85,0.00,,,0.03,WUHU216HW,2013-02-08 10:34:00,
2013-02-08 05:39:00,35.7,31.6,29.90,NW,315,7.8,7.8,85,0.00,,,0.03,WUHU216HW,2013-02-08 10:39:00,
2013-02-08 05:44:00,35.7,31.6,29.90,WSW,248,4.6,7.8,85,0.00,,,0.03,WUHU216HW,2013-02-08 10:44:00,
2013-02-08 05:49:00,35.7,31.6,29.90,NW,315,0.0,5.8,85,0.00,,,0.03,WUHU216HW,2013-02-08 10:49:00,
2013-02-08 05:54:00,35.7,31.6,29.91,WNW,293,1.7,4.6,85,0.00,,,0.03,WUHU216HW,2013-02-08 10:54:00,
2013-02-08 05:59:00,35.6,31.4,29.91,West,270,5.5,10.5,85,0.00,,,0.03,WUHU216HW,2013-02-08 10:59:00,
2013-02-08 06:04:00,35.6,31.4,29.91,NW,315,1.1,10.5,85,0.00,,,0.03,WUHU216HW,2013-02-08 11:04:00,
2013-02-08 06:09:00,35.4,31.2,29.92,WNW,293,10.0,10.0,85,0.00,,,0.03,WUHU216HW,2013-02-08 11:09:00,
2013-02-08 06:14:00,35.4,31.2,29.92,SW,225,0.0,10.0,85,0.00,,,0.03,WUHU216HW,2013-02-08 11:14:00,
2013-02-08 06:19:00,35.4,31.2,29.93,WNW,293,7.1,10.2,85,0.00,,,0.03,WUHU216HW,2013-02-08 11:19:00,
2013-02-08 06:24:00,35.4,31.2,29.93,WNW,293,6.2,10.2,85,0.00,,,0.03,WUHU216HW,2013-02-08 11:24:00,
2013-02-08 06:29:00,35.4,31.2,29.93,West,270,5.3,7.3,85,0.00,,,0.03,WUHU216HW,2013-02-08 11:29:00,
2013-02-08 06:34:00,35.4,31.2,29.93,WSW,248,0.0,7.3,85,0.00,,,0.03,WUHU216HW,2013-02-08 11:34:00,
2013-02-08 06:39:00,35.2,31.1,29.94,WNW,293,0.0,5.8,85,0.00,,,0.03,WUHU216HW,2013-02-08 11:39:00,
2013-02-08 06:45:00,35.2,31.1,29.94,WNW,293,12.9,12.9,85,0.00,,,0.03,WUHU216HW,2013-02-08 11:45:00,
2013-02-08 06:50:00,35.2,30.8,29.94,NW,315,0.0,12.9,84,0.00,,,0.03,WUHU216HW,2013-02-08 11:50:00,
2013-02-08 06:55:00,35.2,30.8,29.94,West,270,2.2,12.9,84,0.00,,,0.03,WUHU216HW,2013-02-08 11:55:00,
2013-02-08 07:00:00,34.8,30.4,29.95,WNW,293,0.0,3.3,84,0.00,,,0.03,WUHU216HW,2013-02-08 12:00:00,
2013-02-08 07:05:00,34.8,30.4,29.95,NW,315,0.0,10.7,84,0.00,,,0.03,WUHU216HW,2013-02-08 12:05:00,
2013-02-08 07:10:00,34.8,30.4,29.95,NNW,338,0.0,10.7,84,0.00,,,0.03,WUHU216HW,2013-02-08 12:10:00,
2013-02-08 07:15:00,34.7,30.2,29.96,NW,315,0.0,9.8,84,0.00,,,0.03,WUHU216HW,2013-02-08 12:15:00,
2013-02-08 07:20:00,34.7,30.2,29.96,West,270,0.0,0.0,84,0.00,,,0.03,WUHU216HW,2013-02-08 12:20:00,
2013-02-08 07:25:00,34.7,30.2,29.97,WNW,293,5.8,16.5,84,0.00,,,0.03,WUHU216HW,2013-02-08 12:25:00,
2013-02-08 07:30:00,34.5,30.0,29.96,WSW,248,6.4,16.5,84,0.00,,,0.03,WUHU216HW,2013-02-08 12:30:00,
2013-02-08 07:35:00,34.5,30.0,29.97,WSW,248,3.1,15.4,84,0.00,,,0.03,WUHU216HW,2013-02-08 12:35:00,
2013-02-08 07:40:00,34.3,29.9,29.97,WNW,293,10.2,15.4,84,0.00,,,0.03,WUHU216HW,2013-02-08 12:40:00,
2013-02-08 07:45:00,34.3,29.9,29.98,West,270,4.2,15.6,84,0.00,,,0.03,WUHU216HW,2013-02-08 12:45:00,
2013-02-08 07:50:00,34.3,29.9,29.98,WSW,248,5.3,15.6,84,0.00,,,0.03,WUHU216HW,2013-02-08 12:50:00,
2013-02-08 07:55:00,34.3,29.9,29.98,WNW,293,7.3,7.3,84,0.00,,,0.03,WUHU216HW,2013-02-08 12:55:00,
2013-02-08 08:00:00,34.3,29.9,29.98,West,270,5.5,7.3,84,0.00,,,0.03,WUHU216HW,2013-02-08 13:00:00,
2013-02-08 08:05:00,34.3,29.9,29.99,West,270,5.8,9.1,84,0.00,,,0.03,WUHU216HW,2013-02-08 13:05:00,
2013-02-08 08:10:00,34.3,29.9,29.99,WNW,293,2.0,15.8,84,0.00,,,0.03,WUHU216HW,2013-02-08 13:10:00,
2013-02-08 08:15:00,34.3,29.9,30.00,NNW,338,2.9,15.8,84,0.00,,,0.03,WUHU216HW,2013-02-08 13:15:00,
2013-02-08 08:20:00,34.3,29.9,30.00,NW,315,0.0,3.8,84,0.00,,,0.03,WUHU216HW,2013-02-08 13:20:00,
2013-02-08 08:25:00,34.3,29.9,30.00,West,270,0.0,6.2,84,0.00,,,0.03,WUHU216HW,2013-02-08 13:25:00,
2013-02-08 08:30:00,34.3,29.9,30.00,WSW,248,4.0,6.4,84,0.00,,,0.03,WUHU216HW,2013-02-08 13:30:00,
2013-02-08 08:35:00,34.3,29.9,30.01,WNW,293,6.9,6.9,84,0.00,,,0.03,WUHU216HW,2013-02-08 13:35:00,
2013-02-08 08:40:00,34.1,29.7,30.01,WNW,293,10.9,10.9,84,0.00,,,0.03,WUHU216HW,2013-02-08 13:40:00,
2013-02-08 08:45:00,34.1,29.7,30.01,West,270,9.6,10.9,84,0.00,,,0.03,WUHU216HW,2013-02-08 13:45:00,
2013-02-08 08:50:00,34.1,29.7,30.01,WNW,293,3.5,10.9,84,0.00,,,0.03,WUHU216HW,2013-02-08 13:50:00,
2013-02-08 08:55:00,33.9,29.5,30.02,WNW,293,3.1,3.5,84,0.00,,,0.03,WUHU216HW,2013-02-08 13:55:00,
2013-02-08 09:00:00,33.9,29.5,30.03,West,270,12.0,12.0,84,0.00,,,0.03,WUHU216HW,2013-02-08 14:00:00,
2013-02-08 09:05:00,33.9,29.5,30.03,NW,315,2.6,12.0,84,0.00,,,0.03,WUHU216HW,2013-02-08 14:05:00,
2013-02-08 09:10:00,33.9,29.5,30.03,NNW,338,11.4,11.4,84,0.00,,,0.03,WUHU216HW,2013-02-08 14:10:00,
2013-02-08 09:15:00,33.8,29.3,30.03,NNW,338,5.5,14.0,84,0.00,,,0.03,WUHU216HW,2013-02-08 14:15:00,
2013-02-08 09:20:00,33.8,29.3,30.03,West,270,0.0,14.0,84,0.00,,,0.03,WUHU216HW,2013-02-08 14:20:00,
2013-02-08 09:25:00,33.6,28.9,30.03,West,270,13.1,13.1,83,0.00,,,0.03,WUHU216HW,2013-02-08 14:25:00,
2013-02-08 09:30:00,33.8,29.0,30.04,NW,315,5.8,13.1,83,0.00,,,0.03,WUHU216HW,2013-02-08 14:30:00,
2013-02-08 09:35:00,33.6,28.9,30.04,NW,315,5.1,13.1,83,0.00,,,0.03,WUHU216HW,2013-02-08 14:35:00,
2013-02-08 09:40:00,33.6,28.9,30.04,NW,315,3.3,5.8,83,0.00,,,0.03,WUHU216HW,2013-02-08 14:40:00,
2013-02-08 09:45:00,33.6,28.9,30.04,NNW,338,0.6,7.1,83,0.00,,,0.03,WUHU216HW,2013-02-08 14:45:00,
2013-02-08 09:50:00,33.6,28.9,30.05,NNW,338,6.0,7.1,83,0.00,,,0.03,WUHU216HW,2013-02-08 14:50:00,
2013-02-08 09:55:00,33.6,28.9,30.05,North,0,6.4,6.4,83,0.00,,,0.03,WUHU216HW,2013-02-08 14:55:00,
2013-02-08 10:00:00,33.6,28.9,30.06,North,0,2.0,12.7,83,0.00,,,0.03,WUHU216HW,2013-02-08 15:00:00,
2013-02-08 10:05:00,33.6,28.9,30.06,NNW,338,0.0,12.7,83,0.00,,,0.03,WUHU216HW,2013-02-08 15:05:00,
2013-02-08 10:10:00,33.6,28.9,30.06,WNW,293,4.0,4.0,83,0.00,,,0.03,WUHU216HW,2013-02-08 15:10:00,
2013-02-08 10:15:00,33.6,28.9,30.06,WNW,293,1.3,4.0,83,0.00,,,0.03,WUHU216HW,2013-02-08 15:15:00,
2013-02-08 10:20:00,33.6,28.9,30.07,WSW,248,0.0,5.8,83,0.00,,,0.03,WUHU216HW,2013-02-08 15:20:00,
2013-02-08 10:25:00,33.6,28.9,30.07,WSW,248,0.0,5.8,83,0.00,,,0.03,WUHU216HW,2013-02-08 15:25:00,
2013-02-08 10:30:00,33.8,28.7,30.07,NNW,338,7.6,7.6,82,0.00,,,0.03,WUHU216HW,2013-02-08 15:30:00,
2013-02-08 10:35:00,33.8,28.7,30.07,NW,315,0.0,7.6,82,0.00,,,0.03,WUHU216HW,2013-02-08 15:35:00,
2013-02-08 10:40:00,33.9,28.9,30.07,WNW,293,5.8,6.2,82,0.00,,,0.03,WUHU216HW,2013-02-08 15:40:00,
2013-02-08 10:45:00,33.8,28.7,30.08,NE,45,5.3,5.8,82,0.00,,,0.03,WUHU216HW,2013-02-08 15:45:00,
2013-02-08 10:50:00,33.8,28.7,30.08,West,270,4.9,5.8,82,0.00,,,0.03,WUHU216HW,2013-02-08 15:50:00,
2013-02-08 10:55:00,33.8,28.7,30.08,West,270,0.0,4.9,82,0.00,,,0.03,WUHU216HW,2013-02-08 15:55:00,
2013-02-08 11:00:00,33.8,28.7,30.08,WNW,293,4.2,4.9,82,0.00,,,0.03,WUHU216HW,2013-02-08 16:00:00,
2013-02-08 11:05:00,33.9,28.9,30.09,NW,315,7.1,11.4,82,0.00,,,0.03,WUHU216HW,2013-02-08 16:05:00,
2013-02-08 11:10:00,33.8,28.7,30.09,North,0,0.0,11.4,82,0.00,,,0.03,WUHU216HW,2013-02-08 16:10:00,
2013-02-08 11:15:00,33.9,28.9,30.09,NW,315,0.0,7.1,82,0.00,,,0.03,WUHU216HW,2013-02-08 16:15:00,
2013-02-08 11:20:00,33.9,28.9,30.10,West,270,0.0,11.4,82,0.00,,,0.03,WUHU216HW,2013-02-08 16:20:00,
2013-02-08 11:25:00,33.9,28.9,30.10,WNW,293,3.1,13.4,82,0.00,,,0.03,WUHU216HW,2013-02-08 16:25:00,
2013-02-08 11:30:00,33.8,28.5,30.10,WNW,293,16.3,16.3,81,0.00,,,0.03,WUHU216HW,2013-02-08 16:30:00,
2013-02-08 11:35:00,33.6,28.3,30.11,WNW,293,6.9,16.3,81,0.00,,,0.03,WUHU216HW,2013-02-08 16:35:00,
2013-02-08 11:40:00,33.6,28.3,30.11,NNW,338,6.4,6.9,81,0.00,,,0.03,WUHU216HW,2013-02-08 16:40:00,
2013-02-08 11:45:00,33.6,28.3,30.11,WSW,248,0.0,10.7,81,0.00,,,0.03,WUHU216HW,2013-02-08 16:45:00,
2013-02-08 11:50:00,33.6,28.3,30.11,NNW,338,6.9,10.7,81,0.00,,,0.03,WUHU216HW,2013-02-08 16:50:00,
2013-02-08 11:55:00,33.6,28.6,30.11,NNW,338,3.5,6.9,82,0.00,,,0.03,WUHU216HW,2013-02-08 16:55:00,
2013-02-08 12:00:00,33.6,28.3,30.11,NNW,338,9.3,9.3,81,0.00,,,0.03,WUHU216HW,2013-02-08 17:00:00,
2013-02-08 12:05:00,33.6,28.3,30.11,NNE,23,0.0,9.3,81,0.00,,,0.03,WUHU216HW,2013-02-08 17:05:00,
2013-02-08 12:10:00,33.6,28.3,30.11,NNE,23,9.6,9.6,81,0.00,,,0.03,WUHU216HW,2013-02-08 17:10:00,
2013-02-08 12:15:00,33.6,28.3,30.11,NE,45,0.0,9.6,81,0.00,,,0.03,WUHU216HW,2013-02-08 17:15:00,
2013-02-08 12:20:00,33.8,28.5,30.11,WSW,248,0.0,9.6,81,0.00,,,0.03,WUHU216HW,2013-02-08 17:20:00,
2013-02-08 12:25:00,33.8,28.5,30.11,NW,315,6.9,10.7,81,0.00,,,0.03,WUHU216HW,2013-02-08 17:25:00,
2013-02-08 12:30:00,33.6,28.3,30.11,NW,315,0.0,10.7,81,0.00,,,0.03,WUHU216HW,2013-02-08 17:30:00,
2013-02-08 12:35:00,33.8,28.5,30.11,North,0,0.0,8.2,81,0.00,,,0.03,WUHU216HW,2013-02-08 17:35:00,
2013-02-08 12:40:00,33.8,28.5,30.11,ENE,68,0.0,8.2,81,0.00,,,0.03,WUHU216HW,2013-02-08 17:40:00,
2013-02-08 12:45:00,33.8,28.2,30.11,NW,315,4.9,7.3,80,0.00,,,0.03,WUHU216HW,2013-02-08 17:45:00,
2013-02-08 12:50:00,33.8,28.2,30.12,West,270,0.0,7.3,80,0.00,,,0.03,WUHU216HW,2013-02-08 17:50:00,
2013-02-08 12:55:00,33.8,28.2,30.11,West,270,0.0,3.8,80,0.00,,,0.03,WUHU216HW,2013-02-08 17:55:00,
2013-02-08 13:00:00,33.8,28.2,30.12,North,0,3.1,5.3,80,0.00,,,0.03,WUHU216HW,2013-02-08 18:00:00,
2013-02-08 13:05:00,33.8,28.2,30.11,WSW,248,6.7,6.7,80,0.00,,,0.03,WUHU216HW,2013-02-08 18:05:00,
2013-02-08 13:10:00,33.8,28.2,30.11,WNW,293,10.2,12.9,80,0.00,,,0.03,WUHU216HW,2013-02-08 18:10:00,
2013-02-08 13:16:00,33.6,28.0,30.12,NW,315,0.0,12.9,80,0.00,,,0.03,WUHU216HW,2013-02-08 18:16:00,
2013-02-08 13:21:00,33.8,28.2,30.12,NNW,338,11.6,11.6,80,0.00,,,0.03,WUHU216HW,2013-02-08 18:21:00,
2013-02-08 13:26:00,33.8,28.2,30.12,NNW,338,0.0,11.6,80,0.00,,,0.03,WUHU216HW,2013-02-08 18:26:00,
2013-02-08 13:31:00,33.8,28.2,30.12,NW,315,9.1,9.8,80,0.00,,,0.03,WUHU216HW,2013-02-08 18:31:00,
2013-02-08 13:36:00,33.9,28.4,30.12,WNW,293,4.9,9.8,80,0.00,,,0.03,WUHU216HW,2013-02-08 18:36:00,
2013-02-08 13:41:00,33.9,28.4,30.12,WNW,293,2.2,6.7,80,0.00,,,0.03,WUHU216HW,2013-02-08 18:41:00,
2013-02-08 13:46:00,33.9,28.4,30.12,NNW,338,4.6,6.7,80,0.00,,,0.03,WUHU216HW,2013-02-08 18:46:00,
2013-02-08 13:51:00,33.9,28.4,30.13,WNW,293,0.0,4.6,80,0.00,,,0.03,WUHU216HW,2013-02-08 18:51:00,
2013-02-08 13:56:00,33.9,28.4,30.13,WNW,293,13.4,13.4,80,0.00,,,0.03,WUHU216HW,2013-02-08 18:56:00,
2013-02-08 14:01:00,33.9,28.0,30.13,NW,315,0.0,13.4,79,0.00,,,0.03,WUHU216HW,2013-02-08 19:01:00,
2013-02-08 14:06:00,33.9,28.0,30.13,NW,315,4.2,4.2,79,0.00,,,0.03,WUHU216HW,2013-02-08 19:06:00,
2013-02-08 14:11:00,33.9,28.0,30.13,West,270,0.0,4.2,79,0.00,,,0.03,WUHU216HW,2013-02-08 19:11:00,
2013-02-08 14:16:00,33.9,28.0,30.13,North,0,9.8,9.8,79,0.00,,,0.03,WUHU216HW,2013-02-08 19:16:00,
2013-02-08 14:21:00,33.9,28.0,30.13,NE,45,2.6,9.8,79,0.00,,,0.03,WUHU216HW,2013-02-08 19:21:00,
2013-02-08 14:26:00,33.9,28.0,30.13,NE,45,6.0,9.8,79,0.00,,,0.03,WUHU216HW,2013-02-08 19:26:00,
2013-02-08 14:31:00,33.9,28.0,30.13,WNW,293,0.0,6.9,79,0.00,,,0.03,WUHU216HW,2013-02-08 19:31:00,
2013-02-08 14:36:00,33.9,28.0,30.14,WNW,293,9.1,9.1,79,0.00,,,0.03,WUHU216HW,2013-02-08 19:36:00,
2013-02-08 14:41:00,33.9,28.0,30.14,West,270,0.0,9.1,79,0.00,,,0.03,WUHU216HW,2013-02-08 19:41:00,
2013-02-08 14:46:00,33.8,27.8,30.14,NW,315,2.4,9.1,79,0.00,,,0.03,WUHU216HW,2013-02-08 19:46:00,
2013-02-08 14:51:00,33.9,28.0,30.14,WNW,293,5.3,6.2,79,0.00,,,0.03,WUHU216HW,2013-02-08 19:51:00,
2013-02-08 14:56:00,33.9,28.0,30.14,NNE,23,0.0,5.3,79,0.00,,,0.03,WUHU216HW,2013-02-08 19:56:00,
2013-02-08 15:01:00,33.9,28.0,30.14,WNW,293,3.3,6.0,79,0.00,,,0.03,WUHU216HW,2013-02-08 20:01:00,
2013-02-08 15:06:00,33.9,28.0,30.14,NW,315,5.8,6.2,79,0.00,,,0.03,WUHU216HW,2013-02-08 20:06:00,
2013-02-08 15:11:00,33.8,27.8,30.15,North,0,0.0,6.2,79,0.00,,,0.03,WUHU216HW,2013-02-08 20:11:00,
2013-02-08 15:16:00,33.6,27.7,30.15,West,270,0.0,6.7,79,0.00,,,0.03,WUHU216HW,2013-02-08 20:16:00,
2013-02-08 15:21:00,33.6,27.7,30.15,NW,315,0.0,6.7,79,0.00,,,0.03,WUHU216HW,2013-02-08 20:21:00,
2013-02-08 15:26:00,33.6,27.7,30.15,NW,315,4.2,4.2,79,0.00,,,0.03,WUHU216HW,2013-02-08 20:26:00,
2013-02-08 15:31:00,33.6,27.7,30.15,West,270,5.8,5.8,79,0.00,,,0.03,WUHU216HW,2013-02-08 20:31:00,
2013-02-08 15:36:00,33.6,27.7,30.15,WNW,293,7.3,7.3,79,0.00,,,0.03,WUHU216HW,2013-02-08 20:36:00,
2013-02-08 15:41:00,33.4,27.5,30.16,West,270,0.0,7.3,79,0.00,,,0.03,WUHU216HW,2013-02-08 20:41:00,
2013-02-08 15:46:00,33.4,27.5,30.16,NW,315,0.0,7.3,79,0.00,,,0.03,WUHU216HW,2013-02-08 20:46:00,
2013-02-08 15:51:00,33.4,27.5,30.16,NW,315,0.0,7.3,79,0.00,,,0.03,WUHU216HW,2013-02-08 20:51:00,
2013-02-08 15:56:00,33.4,27.5,30.16,NNW,338,0.0,7.3,79,0.00,,,0.03,WUHU216HW,2013-02-08 20:56:00,
2013-02-08 16:01:00,33.6,27.7,30.16,NNW,338,6.2,6.2,79,0.00,,,0.03,WUHU216HW,2013-02-08 21:01:00,
2013-02-08 16:06:00,33.4,27.5,30.16,WNW,293,1.1,6.2,79,0.00,,,0.03,WUHU216HW,2013-02-08 21:06:00,
2013-02-08 16:11:00,33.4,27.5,30.16,WNW,293,5.8,6.2,79,0.00,,,0.03,WUHU216HW,2013-02-08 21:11:00,
2013-02-08 16:16:00,33.4,27.5,30.16,NW,315,3.3,8.5,79,0.00,,,0.03,WUHU216HW,2013-02-08 21:16:00,
2013-02-08 16:21:00,33.4,27.5,30.17,West,270,4.9,8.5,79,0.00,,,0.03,WUHU216HW,2013-02-08 21:21:00,
2013-02-08 16:26:00,33.4,27.5,30.17,NNW,338,0.0,6.0,79,0.00,,,0.03,WUHU216HW,2013-02-08 21:26:00,
2013-02-08 16:31:00,33.4,27.5,30.17,NW,315,0.0,6.0,79,0.00,,,0.03,WUHU216HW,2013-02-08 21:31:00,
2013-02-08 16:36:00,33.4,27.5,30.17,West,270,0.0,4.9,79,0.00,,,0.03,WUHU216HW,2013-02-08 21:36:00,
2013-02-08 16:41:00,33.4,27.5,30.17,West,270,0.0,0.0,79,0.00,,,0.03,WUHU216HW,2013-02-08 21:41:00,
2013-02-08 16:46:00,33.2,27.4,30.17,West,270,4.2,6.2,79,0.00,,,0.03,WUHU216HW,2013-02-08 21:46:00,
2013-02-08 16:51:00,33.2,27.4,30.17,WNW,293,0.0,6.9,79,0.00,,,0.03,WUHU216HW,2013-02-08 21:51:00,
2013-02-08 16:56:00,33.2,27.4,30.17,West,270,0.0,6.9,79,0.00,,,0.03,WUHU216HW,2013-02-08 21:56:00,
2013-02-08 17:01:00,33.0,27.2,30.18,West,270,0.0,2.0,79,0.00,,,0.03,WUHU216HW,2013-02-08 22:01:00,
2013-02-08 17:06:00,33.0,27.2,30.18,West,270,0.0,0.0,79,0.00,,,0.03,WUHU216HW,2013-02-08 22:06:00,
2013-02-08 17:11:00,33.2,27.4,30.19,NW,315,2.6,2.6,79,0.00,,,0.03,WUHU216HW,2013-02-08 22:11:00,
2013-02-08 17:16:00,33.2,27.4,30.19,West,270,0.0,4.9,79,0.00,,,0.03,WUHU216HW,2013-02-08 22:16:00,
2013-02-08 17:21:00,33.2,27.4,30.19,WNW,293,0.0,4.9,79,0.00,,,0.03,WUHU216HW,2013-02-08 22:21:00,
2013-02-08 17:26:00,33.2,27.4,30.19,WNW,293,0.0,0.0,79,0.00,,,0.03,WUHU216HW,2013-02-08 22:26:00,
2013-02-08 17:31:00,33.2,27.4,30.19,NNW,338,0.0,1.1,79,0.00,,,0.03,WUHU216HW,2013-02-08 22:31:00,
2013-02-08 17:36:00,33.2,27.4,30.19,NNW,338,0.0,1.3,79,0.00,,,0.03,WUHU216HW,2013-02-08 22:36:00,
2013-02-08 17:41:00,33.2,27.4,30.19,WNW,293,0.0,1.3,79,0.00,,,0.03,WUHU216HW,2013-02-08 22:41:00,
2013-02-08 17:46:00,33.2,27.4,30.19,NNW,338,0.0,0.0,79,0.00,,,0.03,WUHU216HW,2013-02-08 22:46:00,
2013-02-08 17:51:00,33.2,27.4,30.20,NW,315,0.0,0.0,79,0.00,,,0.03,WUHU216HW,2013-02-08 22:51:00,
2013-02-08 17:56:00,33.2,27.4,30.20,WNW,293,4.4,4.4,79,0.00,,,0.03,WUHU216HW,2013-02-08 22:56:00,
2013-02-08 18:01:00,33.2,27.4,30.21,West,270,0.0,4.4,79,0.00,,,0.03,WUHU216HW,2013-02-08 23:01:00,
2013-02-08 18:06:00,33.0,27.2,30.21,NNW,338,0.0,0.0,79,0.00,,,0.03,WUHU216HW,2013-02-08 23:06:00,
2013-02-08 18:11:00,33.0,27.2,30.21,West,270,0.0,0.0,79,0.00,,,0.03,WUHU216HW,2013-02-08 23:11:00,
2013-02-08 18:16:00,33.0,27.2,30.21,WNW,293,0.0,0.0,79,0.00,,,0.03,WUHU216HW,2013-02-08 23:16:00,
2013-02-08 18:21:00,33.0,27.2,30.21,West,270,0.0,0.0,79,0.00,,,0.03,WUHU216HW,2013-02-08 23:21:00,
2013-02-08 18:27:00,33.0,27.2,30.21,SSW,203,5.3,5.3,79,0.00,,,0.03,WUHU216HW,2013-02-08 23:27:00,
2013-02-08 18:32:00,33.0,27.2,30.21,North,0,0.0,5.3,79,0.00,,,0.03,WUHU216HW,2013-02-08 23:32:00,
2013-02-08 18:37:00,33.0,26.9,30.21,WNW,293,0.0,7.8,78,0.00,,,0.03,WUHU216HW,2013-02-08 23:37:00,
2013-02-08 18:42:00,33.0,26.9,30.21,NW,315,0.0,7.8,78,0.00,,,0.03,WUHU216HW,2013-02-08 23:42:00,
2013-02-08 18:47:00,33.0,26.9,30.22,ENE,68,0.0,0.0,78,0.00,,,0.03,WUHU216HW,2013-02-08 23:47:00,
2013-02-08 18:52:00,33.0,26.9,30.22,NNW,338,0.0,4.2,78,0.00,,,0.03,WUHU216HW,2013-02-08 23:52:00,
2013-02-08 18:57:00,33.0,26.9,30.22,West,270,0.0,4.2,78,0.00,,,0.03,WUHU216HW,2013-02-08 23:57:00,
2013-02-08 19:02:00,33.0,26.9,30.22,NNW,338,0.0,4.2,78,0.00,,,0.03,WUHU216HW,2013-02-09 00:02:00,
2013-02-08 19:07:00,33.0,26.9,30.22,NE,45,0.0,4.2,78,0.00,,,0.03,WUHU216HW,2013-02-09 00:07:00,
2013-02-08 19:12:00,33.0,26.9,30.22,NNW,338,5.5,8.2,78,0.00,,,0.03,WUHU216HW,2013-02-09 00:12:00,
2013-02-08 19:17:00,33.0,26.9,30.23,NNW,338,0.0,8.2,78,0.00,,,0.03,WUHU216HW,2013-02-09 00:17:00,
2013-02-08 19:22:00,33.0,26.9,30.22,WNW,293,5.1,5.5,78,0.00,,,0.03,WUHU216HW,2013-02-09 00:22:00,
2013-02-08 19:27:00,33.0,26.9,30.22,WNW,293,0.0,5.3,78,0.00,,,0.03,WUHU216HW,2013-02-09 00:27:00,
2013-02-08 19:32:00,33.0,26.9,30.23,West,270,0.0,5.1,78,0.00,,,0.03,WUHU216HW,2013-02-09 00:32:00,
2013-02-08 19:37:00,33.0,26.9,30.23,NW,315,0.0,2.4,78,0.00,,,0.03,WUHU216HW,2013-02-09 00:37:00,
2013-02-08 19:42:00,33.0,26.9,30.24,West,270,0.0,2.4,78,0.00,,,0.03,WUHU216HW,2013-02-09 00:42:00,
2013-02-08 19:47:00,33.0,26.9,30.24,NW,315,4.0,4.0,78,0.00,,,0.03,WUHU216HW,2013-02-09 00:47:00,
2013-02-08 19:52:00,33.0,26.9,30.24,NW,315,0.0,5.3,78,0.00,,,0.03,WUHU216HW,2013-02-09 00:52:00,
2013-02-08 19:57:00,33.0,26.6,30.25,NNW,338,1.5,5.3,77,0.00,,,0.03,WUHU216HW,2013-02-09 00:57:00,
2013-02-08 20:02:00,33.0,26.6,30.25,WNW,293,0.0,2.2,77,0.00,,,0.03,WUHU216HW,2013-02-09 01:02:00,
2013-02-08 20:07:00,33.0,26.6,30.25,NW,315,0.0,2.2,77,0.00,,,0.03,WUHU216HW,2013-02-09 01:07:00,
2013-02-08 20:12:00,33.0,26.6,30.25,NNW,338,0.0,0.0,77,0.00,,,0.03,WUHU216HW,2013-02-09 01:12:00,
2013-02-08 20:17:00,33.0,26.6,30.25,West,270,0.0,0.0,77,0.00,,,0.03,WUHU216HW,2013-02-09 01:17:00,
2013-02-08 20:22:00,33.0,26.6,30.25,NW,315,0.0,0.0,77,0.00,,,0.03,WUHU216HW,2013-02-09 01:22:00,
2013-02-08 20:27:00,33.0,26.6,30.25,West,270,0.0,9.1,77,0.00,,,0.03,WUHU216HW,2013-02-09 01:27:00,
2013-02-08 20:32:00,33.0,26.6,30.25,West,270,2.4,9.1,77,0.00,,,0.03,WUHU216HW,2013-02-09 01:32:00,
2013-02-08 20:37:00,33.0,26.6,30.25,NW,315,0.0,2.4,77,0.00,,,0.03,WUHU216HW,2013-02-09 01:37:00,
2013-02-08 20:42:00,33.0,26.2,30.25,NNW,338,0.0,4.6,76,0.00,,,0.03,WUHU216HW,2013-02-09 01:42:00,
2013-02-08 20:47:00,33.0,26.2,30.25,NNE,23,0.0,9.6,76,0.00,,,0.03,WUHU216HW,2013-02-09 01:47:00,
2013-02-08 20:52:00,32.9,26.1,30.25,NNW,338,6.9,9.6,76,0.00,,,0.03,WUHU216HW,2013-02-09 01:52:00,
2013-02-08 20:57:00,32.9,26.1,30.25,NW,315,4.0,6.9,76,0.00,,,0.03,WUHU216HW,2013-02-09 01:57:00,
2013-02-08 21:02:00,32.9,26.1,30.24,North,0,3.3,6.9,76,0.00,,,0.03,WUHU216HW,2013-02-09 02:02:00,
2013-02-08 21:07:00,32.9,26.1,30.24,North,0,4.2,4.9,76,0.00,,,0.03,WUHU216HW,2013-02-09 02:07:00,
2013-02-08 21:12:00,32.9,26.1,30.24,NNW,338,0.0,4.9,76,0.00,,,0.03,WUHU216HW,2013-02-09 02:12:00,
2013-02-08 21:17:00,32.9,26.1,30.24,North,0,0.0,4.2,76,0.00,,,0.03,WUHU216HW,2013-02-09 02:17:00,
2013-02-08 21:22:00,32.9,26.1,30.24,NNW,338,0.0,0.0,76,0.00,,,0.03,WUHU216HW,2013-02-09 02:22:00,
2013-02-08 21:27:00,32.9,26.1,30.24,NNW,338,0.0,0.0,76,0.00,,,0.03,WUHU216HW,2013-02-09 02:27:00,
2013-02-08 21:32:00,32.9,26.1,30.24,NNE,23,0.0,2.6,76,0.00,,,0.03,WUHU216HW,2013-02-09 02:32:00,
2013-02-08 21:37:00,32.9,26.1,30.23,NNW,338,0.0,2.6,76,0.00,,,0.03,WUHU216HW,2013-02-09 02:37:00,
2013-02-08 21:42:00,32.9,26.1,30.23,NNE,23,4.0,4.0,76,0.00,,,0.03,WUHU216HW,2013-02-09 02:42:00,
2013-02-08 21:47:00,32.7,25.9,30.23,North,0,0.0,4.0,76,0.00,,,0.03,WUHU216HW,2013-02-09 02:47:00,
2013-02-08 21:52:00,32.9,26.1,30.23,NNE,23,0.0,4.0,76,0.00,,,0.03,WUHU216HW,2013-02-09 02:52:00,
2013-02-08 21:57:00,32.7,25.9,30.24,NNW,338,1.1,4.4,76,0.00,,,0.03,WUHU216HW,2013-02-09 02:57:00,
2013-02-08 22:02:00,32.7,25.9,30.24,NNE,23,0.0,4.4,76,0.00,,,0.03,WUHU216HW,2013-02-09 03:02:00,
2013-02-08 22:07:00,32.7,25.9,30.25,NE,45,4.2,4.2,76,0.00,,,0.03,WUHU216HW,2013-02-09 03:07:00,
2013-02-08 22:12:00,32.7,25.9,30.25,NNE,23,0.0,4.2,76,0.00,,,0.03,WUHU216HW,2013-02-09 03:12:00,
2013-02-08 22:17:00,32.7,25.9,30.24,NNE,23,0.0,4.2,76,0.00,,,0.03,WUHU216HW,2013-02-09 03:17:00,
2013-02-08 22:22:00,32.7,25.9,30.25,NNW,338,1.7,1.7,76,0.00,,,0.03,WUHU216HW,2013-02-09 03:22:00,
2013-02-08 22:27:00,32.7,25.9,30.24,NNE,23,0.0,1.7,76,0.00,,,0.03,WUHU216HW,2013-02-09 03:27:00,
2013-02-08 22:32:00,32.7,25.9,30.24,North,0,0.0,1.7,76,0.00,,,0.03,WUHU216HW,2013-02-09 03:32:00,
2013-02-08 22:37:00,32.7,25.9,30.25,NNE,23,0.0,0.0,76,0.00,,,0.03,WUHU216HW,2013-02-09 03:37:00,
2013-02-08 22:42:00,32.7,25.9,30.25,NNE,23,0.0,3.5,76,0.00,,,0.03,WUHU216HW,2013-02-09 03:42:00,
2013-02-08 22:47:00,32.7,25.9,30.25,NNE,23,0.0,3.5,76,0.00,,,0.03,WUHU216HW,2013-02-09 03:47:00,
2013-02-08 22:52:00,32.7,25.9,30.26,NNE,23,0.0,0.0,76,0.00,,,0.03,WUHU216HW,2013-02-09 03:52:00,
2013-02-08 22:57:00,32.7,25.9,30.26,NNE,23,0.0,0.0,76,0.00,,,0.03,WUHU216HW,2013-02-09 03:57:00,
2013-02-08 23:02:00,32.7,25.9,30.26,NE,45,0.0,0.0,76,0.00,,,0.03,WUHU216HW,2013-02-09 04:02:00,
2013-02-08 23:07:00,32.7,25.9,30.26,NNW,338,0.0,0.0,76,0.00,,,0.03,WUHU216HW,2013-02-09 04:07:00,
2013-02-08 23:12:00,32.7,25.9,30.26,NNW,338,0.0,0.0,76,0.00,,,0.03,WUHU216HW,2013-02-09 04:12:00,
2013-02-08 23:17:00,32.7,25.9,30.26,North,0,0.0,0.0,76,0.00,,,0.03,WUHU216HW,2013-02-09 04:17:00,
2013-02-08 23:22:00,32.5,25.7,30.26,NNE,23,0.0,0.0,76,0.00,,,0.03,WUHU216HW,2013-02-09 04:22:00,
2013-02-08 23:27:00,32.5,25.7,30.26,NNE,23,0.0,0.0,76,0.00,,,0.03,WUHU216HW,2013-02-09 04:27:00,
2013-02-08 23:32:00,32.5,25.7,30.27,NNE,23,0.0,0.0,76,0.00,,,0.03,WUHU216HW,2013-02-09 04:32:00,
2013-02-08 23:37:00,32.5,25.7,30.27,NNE,23,0.0,0.0,76,0.00,,,0.03,WUHU216HW,2013-02-09 04:37:00,
2013-02-08 23:42:00,32.5,25.7,30.27,NNE,23,0.0,0.0,76,0.00,,,0.03,WUHU216HW,2013-02-09 04:42:00,
2013-02-08 23:47:00,32.5,25.7,30.27,NNE,23,0.0,0.0,76,0.00,,,0.03,WUHU216HW,2013-02-09 04:47:00,
2013-02-08 23:52:00,32.5,25.7,30.27,ENE,68,0.0,1.1,76,0.00,,,0.03,WUHU216HW,2013-02-09 04:52:00,
2013-02-08 23:57:00,32.5,25.7,30.27,North,0,0.0,1.1,76,0.00,,,0.03,WUHU216HW,2013-02-09 04:57:00,